When you browse on this site, cookies collect data to enhance your experience and personalize the content and advertising you see.
Visit our Privacy Policy to learn more. By continuing to use the site, you agree to this use of cookies and data.
  • In Latvia
  • List of Countries
  • For 7 days
  • Water Temperature
  • Satellite Maps
  • Weather Map
  • Weather Widgets
  • user-avatar
    Login

    Hourly Weather Yeghegnadzor

    Today, 23 April, Tuesday

    Time Temperature Precipitation Wind Pressure Humidity
    00:00 +2°C° 0.1 mm 1 mps 651 mmHg 79%
    01:00 +2°C° 0.1 mm 1 mps 651 mmHg 79%
    02:00 +2°C° 0.1 mm 1 mps 651 mmHg 79%
    03:00 +2°C° 0 mm 1 mps 651 mmHg 76%
    04:00 +2°C° 0.1 mm 1 mps 652 mmHg 75%
    05:00 +3°C° 0.1 mm 1 mps 652 mmHg 74%
    06:00 +3°C° 0.1 mm 1 mps 653 mmHg 73%
    07:00 +4°C° 0.1 mm 1 mps 653 mmHg 69%
    08:00 +5°C° 0.1 mm 1 mps 653 mmHg 66%
    09:00 +6°C° 0 mm 1 mps 653 mmHg 62%
    10:00 +6°C° 0.1 mm 2 mps 654 mmHg 61%
    11:00 +6°C° 0.1 mm 2 mps 654 mmHg 60%
    12:00 +7°C° 0.1 mm 2 mps 654 mmHg 59%
    13:00 +7°C° 0.1 mm 2 mps 654 mmHg 58%
    14:00 +8°C° 0.1 mm 2 mps 654 mmHg 57%
    15:00 +8°C° 0.1 mm 2 mps 654 mmHg 56%
    16:00 +8°C° 0.1 mm 2 mps 654 mmHg 57%
    17:00 +7°C° 0.1 mm 2 mps 654 mmHg 58%
    18:00 +8°C° 0.1 mm 1 mps 654 mmHg 59%
    19:00 +7°C° 0 mm 1 mps 655 mmHg 61%
    20:00 +6°C° 0 mm 1 mps 655 mmHg 63%
    21:00 +3°C° 0 mm 2 mps 655 mmHg 65%
    22:00 +3°C° 0 mm 2 mps 655 mmHg 65%
    23:00 +2°C° 0 mm 2 mps 655 mmHg 64%

    Tomorrow, 24 April, Wednesday

    Time Temperature Precipitation Wind Pressure Humidity
    00:00 +2°C° 0 mm 2 mps 656 mmHg 64%
    01:00 +1°C° 0 mm 2 mps 656 mmHg 63%
    02:00 +1°C° 0 mm 2 mps 656 mmHg 62%
    03:00 +1°C° 0 mm 2 mps 656 mmHg 62%
    04:00 +1°C° 0 mm 2 mps 656 mmHg 62%
    05:00 +1°C° 0 mm 2 mps 657 mmHg 62%
    06:00 +2°C° 0 mm 2 mps 657 mmHg 62%
    07:00 +3°C° 0 mm 2 mps 657 mmHg 58%
    08:00 +6°C° 0 mm 1 mps 657 mmHg 55%
    09:00 +8°C° 0 mm 1 mps 658 mmHg 51%
    10:00 +7°C° 0 mm 2 mps 658 mmHg 50%
    11:00 +8°C° 0 mm 2 mps 657 mmHg 49%
    12:00 +9°C° 0 mm 2 mps 657 mmHg 48%
    13:00 +9°C° 0 mm 2 mps 657 mmHg 48%
    14:00 +10°C° 0 mm 2 mps 657 mmHg 48%
    15:00 +10°C° 0 mm 2 mps 656 mmHg 49%
    16:00 +10°C° 0 mm 2 mps 656 mmHg 50%
    17:00 +10°C° 0 mm 1 mps 656 mmHg 51%
    18:00 +10°C° 0 mm 1 mps 656 mmHg 53%
    19:00 +9°C° 0.1 mm 1 mps 656 mmHg 57%
    20:00 +8°C° 0.1 mm 1 mps 656 mmHg 60%
    21:00 +6°C° 0.1 mm 1 mps 656 mmHg 64%
    22:00 +6°C° 0.1 mm 1 mps 656 mmHg 66%
    23:00 +6°C° 0.1 mm 1 mps 656 mmHg 67%

    Day after tomorrow, 25 April, Thursday

    Time Temperature Precipitation Wind Pressure Humidity
    00:00 +6°C° 0.1 mm 1 mps 656 mmHg 68%
    01:00 +5°C° 0.1 mm 1 mps 656 mmHg 70%
    02:00 +5°C° 0.1 mm 1 mps 656 mmHg 71%
    03:00 +5°C° 0.1 mm 1 mps 656 mmHg 72%
    04:00 +5°C° 0.1 mm 1 mps 656 mmHg 71%
    05:00 +5°C° 0.1 mm 1 mps 657 mmHg 71%
    06:00 +6°C° 0.1 mm 1 mps 657 mmHg 70%
    07:00 +7°C° 0 mm 1 mps 657 mmHg 65%
    08:00 +8°C° 0 mm 1 mps 657 mmHg 61%
    09:00 +9°C° 0 mm 1 mps 658 mmHg 56%
    10:00 +9°C° 0.1 mm 1 mps 657 mmHg 56%
    11:00 +10°C° 0.1 mm 1 mps 657 mmHg 56%
    12:00 +10°C° 0.1 mm 2 mps 657 mmHg 56%
    13:00 +11°C° 0.3 mm 1 mps 657 mmHg 57%
    14:00 +11°C° 0.3 mm 1 mps 656 mmHg 58%
    15:00 +11°C° 0.3 mm 1 mps 656 mmHg 58%
    16:00 +10°C° 0.2 mm 1 mps 656 mmHg 60%
    17:00 +10°C° 0.2 mm 1 mps 656 mmHg 61%
    18:00 +10°C° 0.2 mm 1 mps 656 mmHg 63%
    19:00 +8°C° 0 mm 1 mps 656 mmHg 65%
    20:00 +6°C° 0 mm 2 mps 656 mmHg 67%
    21:00 +5°C° 0 mm 2 mps 656 mmHg 70%
    22:00 +5°C° 0 mm 2 mps 656 mmHg 70%
    23:00 +4°C° 0 mm 2 mps 656 mmHg 70%

    26 April, Friday

    Time Temperature Precipitation Wind Pressure Humidity
    00:00 +4°C° 0 mm 2 mps 657 mmHg 71%
    01:00 +3°C° 0 mm 2 mps 656 mmHg 70%
    02:00 +3°C° 0 mm 2 mps 656 mmHg 70%
    03:00 +3°C° 0 mm 2 mps 656 mmHg 69%
    04:00 +3°C° 0 mm 2 mps 656 mmHg 68%
    05:00 +3°C° 0 mm 2 mps 656 mmHg 66%
    06:00 +3°C° 0 mm 2 mps 656 mmHg 64%
    07:00 +5°C° 0 mm 2 mps 657 mmHg 60%
    08:00 +8°C° 0 mm 1 mps 657 mmHg 55%
    09:00 +10°C° 0 mm 1 mps 657 mmHg 50%
    10:00 +10°C° 0 mm 1 mps 657 mmHg 51%
    11:00 +11°C° 0 mm 1 mps 657 mmHg 51%
    12:00 +12°C° 0 mm 1 mps 656 mmHg 52%
    13:00 +12°C° 0 mm 1 mps 656 mmHg 51%
    14:00 +13°C° 0 mm 1 mps 656 mmHg 51%
    15:00 +13°C° 0 mm 1 mps 655 mmHg 51%
    16:00 +13°C° 0 mm 1 mps 655 mmHg 51%
    17:00 +12°C° 0 mm 1 mps 655 mmHg 52%
    18:00 +12°C° 0 mm 1 mps 655 mmHg 52%
    19:00 +10°C° 0 mm 1 mps 655 mmHg 56%
    20:00 +8°C° 0 mm 2 mps 656 mmHg 60%
    21:00 +7°C° 0 mm 2 mps 656 mmHg 64%
    22:00 +6°C° 0 mm 2 mps 656 mmHg 66%
    23:00 +6°C° 0 mm 2 mps 656 mmHg 67%

    27 April, Saturday

    Time Temperature Precipitation Wind Pressure Humidity
    00:00 +5°C° 0 mm 2 mps 656 mmHg 69%
    01:00 +5°C° 0 mm 2 mps 655 mmHg 69%
    02:00 +5°C° 0 mm 2 mps 655 mmHg 69%
    03:00 +4°C° 0 mm 2 mps 655 mmHg 68%
    04:00 +4°C° 0 mm 2 mps 655 mmHg 66%
    05:00 +5°C° 0 mm 2 mps 655 mmHg 63%
    06:00 +5°C° 0 mm 2 mps 656 mmHg 60%
    07:00 +7°C° 0 mm 2 mps 656 mmHg 58%
    08:00 +9°C° 0 mm 1 mps 656 mmHg 55%
    09:00 +11°C° 0 mm 1 mps 656 mmHg 53%
    10:00 +12°C° 0 mm 1 mps 656 mmHg 51%
    11:00 +13°C° 0 mm 2 mps 656 mmHg 49%
    12:00 +14°C° 0 mm 2 mps 656 mmHg 47%
    13:00 +14°C° 0 mm 2 mps 655 mmHg 46%
    14:00 +14°C° 0 mm 2 mps 655 mmHg 44%
    15:00 +15°C° 0 mm 2 mps 655 mmHg 42%
    16:00 +14°C° 0 mm 1 mps 655 mmHg 41%
    17:00 +14°C° 0 mm 1 mps 654 mmHg 39%
    18:00 +13°C° 0 mm 1 mps 654 mmHg 38%
    19:00 +12°C° 0 mm 1 mps 654 mmHg 40%
    20:00 +10°C° 0 mm 1 mps 654 mmHg 42%
    21:00 +9°C° 0 mm 1 mps 654 mmHg 44%
    22:00 +8°C° 0 mm 1 mps 654 mmHg 43%
    23:00 +8°C° 0 mm 1 mps 654 mmHg 42%

    28 April, Sunday

    Time Temperature Precipitation Wind Pressure Humidity
    00:00 +6°C° 0 mm 2 mps 654 mmHg 42%
    01:00 +6°C° 0 mm 2 mps 653 mmHg 41%
    02:00 +7°C° 0 mm 1 mps 653 mmHg 40%
    03:00 +7°C° 0 mm 1 mps 653 mmHg 39%
    04:00 +7°C° 0 mm 1 mps 653 mmHg 42%
    05:00 +7°C° 0 mm 1 mps 653 mmHg 44%
    06:00 +8°C° 0 mm 1 mps 653 mmHg 46%
    07:00 +9°C° 0 mm 1 mps 653 mmHg 47%
    08:00 +11°C° 0 mm 1 mps 653 mmHg 48%
    09:00 +13°C° 0 mm 1 mps 653 mmHg 49%
    10:00 +13°C° 0 mm 2 mps 653 mmHg 49%
    11:00 +14°C° 0 mm 2 mps 653 mmHg 49%
    12:00 +15°C° 0 mm 2 mps 653 mmHg 49%
    13:00 +15°C° 0 mm 2 mps 652 mmHg 48%
    14:00 +14°C° 0 mm 3 mps 652 mmHg 48%
    15:00 +14°C° 0 mm 3 mps 652 mmHg 47%
    16:00 +14°C° 0.1 mm 2 mps 652 mmHg 50%
    17:00 +13°C° 0.1 mm 1 mps 652 mmHg 52%
    18:00 +12°C° 0.1 mm 1 mps 652 mmHg 55%
    19:00 +11°C° 0 mm 1 mps 652 mmHg 58%
    20:00 +10°C° 0 mm 1 mps 652 mmHg 62%
    21:00 +8°C° 0 mm 0 mps 652 mmHg 65%
    22:00 +7°C° 0 mm 0 mps 652 mmHg 67%
    23:00 +7°C° 0 mm 0 mps 652 mmHg 68%
    Show more